Location: Lafig�re
(44.4503°N, 4.0357°E)
Time: 08:26:48
(UTC+00:00)

deb Explorer IX - Pass Details

Date: 23 January 2021
Orbit: 537 x 1103 km, 38.8° (Epoch: 23 February)

Event Time Altitude Azimuth Distance (km) Brightness Sun altitude
Rises 20:16:09 0° 263° (W) 3,450 ? -38.2°
Reaches altitude 10° 20:18:59 10° 257° (WSW) 2,412 ? -38.7°
Enters shadow 20:20:45 19° 250° (WSW) 1,792 ? -39.0°
